User: anonymous   Login
Location: Bletchingley
(51.2333°N, 0.1000°W)
Time: 12:11:02
(UTC+00:00)
Language:

SL-14 R/B - Orbit

View from above orbital plane
View from above orbital plane
View from above satellite
View from above satellite

Ground track
Ground track

The orbit data is extracted from the following two-line orbital elements,

1 33505U 09003B   21206.71180456  .00000656  00000-0  38147-4 0  9995
2 33505  82.3840 191.2597 0026825  74.0281 286.3901 15.10038770687060
Epoch (UTC): 25 July 2021 17:04:59
Eccentricity: 0.0026825
inclination: 82.3840°
perigee height: 517 km
apogee height: 554 km
right ascension of ascending node: 191.2597°
argument of perigee: 74.0281°
revolutions per day: 15.10038770
mean anomaly at epoch: 286.3901°
orbit number at epoch: 68706

The dashed part of the orbit path shows where the satellite is in the earth's shadow,  

DLR